This demonstration page uses our WeatherBlox Daily Observations layout. Learn more.

38.89511, -77.03637

Hourly Observations for October 14, 2015

Temp ( °F °C ) Dew Point ( °F °C ) Humidity (%) Winds ( mph kmh ) Pressure ( in mb ) Visibility ( mi km ) Precip ( " mm )
12:52 am 00:52 Partly Cloudy 62 16.7 50 10 65 65 NNW 6 9 29.76 1008 10 16.0934 0 0
1:52 am 01:52 Partly Cloudy 62 16.7 50 10 65 65 Calm 29.76 1008 10 16.0934 0 0
2:52 am 02:52 Partly Cloudy 60 15.6 49 9.4 67 67 Calm 29.77 1008 10 16.0934 0 0
3:52 am 03:52 Partly Cloudy 60 15.6 48 8.9 65 65 NW 6 9 29.76 1008 10 16.0934 0 0
4:52 am 04:52 Mostly Cloudy 57 13.9 49 9.4 74 74 WSW 3 6 29.78 1008 10 16.0934 0 0
5:52 am 05:52 Mostly Cloudy 56 13.3 49 9.4 77 77 SW 5 7 29.79 1009 10 16.0934 0 0
6:52 am 06:52 Partly Cloudy 57 13.9 47 8.3 69 69 SSW 5 7 29.8 1009 10 16.0934 0 0
7:52 am 07:52 Partly Cloudy 55 12.8 49 9.4 80 80 SSW 5 7 29.81 1009 10 16.0934 0 0
8:52 am 08:52 Partly Cloudy 60 15.6 50 10 70 70 S 5 7 29.83 1010 10 16.0934 0 0
9:52 am 09:52 Partly Cloudy 62 16.7 51 10.6 67 67 S 5 7 29.85 1011 10 16.0934 0 0
10:52 am 10:52 Partly Cloudy 66 18.9 50 10 56 56 NW 10 17 29.85 1011 10 16.0934 0 0
11:30 am 11:30 Mostly Cloudy 66 19 46 8 49 49 W 10 17 29.85 1011 10 16.0934 0 0
11:52 am 11:52 Mostly Cloudy 66 18.9 47 8.3 50 50 WNW 6 9 29.85 1011 10 16.0934 0 0
12:52 pm 12:52 Mostly Cloudy 66 18.9 47 8.3 50 50 WNW 13 20 29.85 1011 10 16.0934 0 0
1:52 pm 13:52 Mostly Cloudy 68 20 47 8.3 47 47 WNW 7 11 29.84 1011 10 16.0934 0 0
2:52 pm 14:52 Partly Cloudy 70 21.1 47 8.3 44 44 NNW 12 19 29.83 1010 10 16.0934 0 0
3:52 pm 15:52 Mostly Cloudy 69 20.6 46 7.8 44 44 NNW 13 20 29.83 1010 10 16.0934 0 0
4:52 pm 16:52 Mostly Cloudy 68 20 44 6.7 42 42 NW 16 26 29.85 1011 10 16.0934 0 0
5:52 pm 17:52 Mostly Cloudy 65 18.3 44 6.7 47 47 NNW 15 24 29.86 1011 10 16.0934 0 0
6:52 pm 18:52 Mostly Cloudy 64 17.8 44 6.7 48 48 NNW 9 15 29.89 1012 10 16.0934 0 0
7:52 pm 19:52 Mostly Cloudy 63 17.2 43 6.1 48 48 NW 8 13 29.91 1013 10 16.0934 0 0
8:52 pm 20:52 Mostly Cloudy 63 17.2 43 6.1 48 48 NW 7 11 29.92 1013 10 16.0934 0 0
9:52 pm 21:52 Mostly Clear 61 16.1 42 5.6 50 50 NW 5 7 29.93 1014 10 16.0934 0 0
10:52 pm 22:52 Mostly Clear 61 16.1 41 5 48 48 WNW 7 11 29.95 1014 10 16.0934 0 0
11:52 pm 23:52 Mostly Clear 56 13.3 46 7.8 70 70 N 3 6 29.95 1014 10 16.0934 0 0

Powered by AerisWeather